Time,TemperatureF,DewpointF,PressureIn,WindDirection,WindDirectionDegrees,WindSpeedMPH,WindSpeedGustMPH,Humidity,HourlyPrecipIn,Conditions,Clouds,dailyrainin,SoftwareType,DateUTC
2013-04-06 00:00:00,57.4,50.6,30.17,WNW,293,1.8,2.9,78,0.00,,,0.00,WUHU216HW,2013-04-06 07:00:00,
2013-04-06 00:05:00,57.4,50.6,30.17,WNW,293,1.3,2.5,78,0.00,,,0.00,WUHU216HW,2013-04-06 07:05:00,
2013-04-06 00:10:00,57.4,50.6,30.18,NNW,338,2.0,2.7,78,0.00,,,0.00,WUHU216HW,2013-04-06 07:10:00,
2013-04-06 00:15:00,57.4,50.6,30.18,NW,315,1.3,3.4,78,0.00,,,0.00,WUHU216HW,2013-04-06 07:15:00,
2013-04-06 00:20:00,57.4,50.6,30.18,West,270,0.4,3.4,78,0.00,,,0.00,WUHU216HW,2013-04-06 07:20:00,
2013-04-06 00:25:00,57.4,50.9,30.18,WNW,293,0.4,1.6,79,0.00,,,0.00,WUHU216HW,2013-04-06 07:25:00,
2013-04-06 00:31:00,57.4,50.9,30.17,West,270,1.8,1.8,79,0.00,,,0.00,WUHU216HW,2013-04-06 07:31:00,
2013-04-06 00:36:00,57.4,50.9,30.17,NW,315,0.0,1.8,79,0.00,,,0.00,WUHU216HW,2013-04-06 07:36:00,
2013-04-06 00:41:00,57.4,50.9,30.17,NW,315,0.0,0.9,79,0.00,,,0.00,WUHU216HW,2013-04-06 07:41:00,
2013-04-06 00:46:00,57.6,51.1,30.17,NW,315,0.0,0.0,79,0.00,,,0.00,WUHU216HW,2013-04-06 07:46:00,
2013-04-06 00:51:00,57.6,51.1,30.16,WNW,293,0.0,0.4,79,0.00,,,0.00,WUHU216HW,2013-04-06 07:51:00,
2013-04-06 00:56:00,57.6,51.1,30.16,WNW,293,0.0,0.4,79,0.00,,,0.00,WUHU216HW,2013-04-06 07:56:00,
2013-04-06 01:01:00,57.8,51.3,30.16,WSW,248,1.1,1.1,79,0.00,,,0.00,WUHU216HW,2013-04-06 08:01:00,
2013-04-06 01:06:00,57.8,51.3,30.17,WSW,248,0.0,1.1,79,0.00,,,0.00,WUHU216HW,2013-04-06 08:06:00,
2013-04-06 01:11:00,57.8,51.3,30.17,WSW,248,1.1,1.1,79,0.00,,,0.00,WUHU216HW,2013-04-06 08:11:00,
2013-04-06 01:16:00,57.8,51.3,30.17,WSW,248,0.0,1.1,79,0.00,,,0.00,WUHU216HW,2013-04-06 08:16:00,
2013-04-06 01:21:00,57.8,51.3,30.17,WSW,248,0.0,1.1,79,0.00,,,0.00,WUHU216HW,2013-04-06 08:21:00,
2013-04-06 01:26:00,57.8,51.3,30.17,WSW,248,0.0,0.0,79,0.00,,,0.00,WUHU216HW,2013-04-06 08:26:00,
2013-04-06 01:31:00,57.8,50.9,30.17,SE,135,0.7,0.7,78,0.00,,,0.00,WUHU216HW,2013-04-06 08:31:00,
2013-04-06 01:36:00,58.0,51.5,30.17,SW,225,0.0,1.1,79,0.00,,,0.00,WUHU216HW,2013-04-06 08:36:00,
2013-04-06 01:41:00,57.8,51.3,30.17,SE,135,0.0,1.1,79,0.00,,,0.00,WUHU216HW,2013-04-06 08:41:00,
2013-04-06 01:46:00,57.8,51.3,30.17,NNW,338,0.4,1.1,79,0.00,,,0.00,WUHU216HW,2013-04-06 08:46:00,
2013-04-06 01:51:00,57.8,51.3,30.17,WSW,248,1.8,1.8,79,0.00,,,0.00,WUHU216HW,2013-04-06 08:51:00,
2013-04-06 01:56:00,57.8,51.3,30.17,WNW,293,0.4,2.0,79,0.00,,,0.00,WUHU216HW,2013-04-06 08:56:00,
2013-04-06 02:02:00,57.8,51.3,30.17,West,270,1.1,2.5,79,0.00,,,0.00,WUHU216HW,2013-04-06 09:02:00,
2013-04-06 02:07:00,57.8,51.3,30.17,WSW,248,1.1,2.5,79,0.00,,,0.00,WUHU216HW,2013-04-06 09:07:00,
2013-04-06 02:12:00,57.8,51.3,30.17,WSW,248,3.1,3.1,79,0.00,,,0.00,WUHU216HW,2013-04-06 09:12:00,
2013-04-06 02:17:00,57.8,51.3,30.16,SW,225,2.0,5.4,79,0.00,,,0.00,WUHU216HW,2013-04-06 09:17:00,
2013-04-06 02:22:00,57.8,51.3,30.16,SW,225,3.6,5.4,79,0.00,,,0.00,WUHU216HW,2013-04-06 09:22:00,
2013-04-06 02:27:00,57.8,51.3,30.16,WSW,248,1.8,3.6,79,0.00,,,0.00,WUHU216HW,2013-04-06 09:27:00,
2013-04-06 02:32:00,57.8,51.3,30.16,WSW,248,2.0,3.4,79,0.00,,,0.00,WUHU216HW,2013-04-06 09:32:00,
2013-04-06 02:37:00,57.8,51.3,30.16,West,270,0.9,3.4,79,0.00,,,0.00,WUHU216HW,2013-04-06 09:37:00,
2013-04-06 02:42:00,57.8,51.3,30.16,West,270,1.3,3.6,79,0.00,,,0.00,WUHU216HW,2013-04-06 09:42:00,
2013-04-06 02:47:00,57.8,51.3,30.16,West,270,1.3,3.6,79,0.00,,,0.00,WUHU216HW,2013-04-06 09:47:00,
2013-04-06 02:52:00,57.8,51.3,30.16,West,270,1.1,2.2,79,0.00,,,0.00,WUHU216HW,2013-04-06 09:52:00,
2013-04-06 02:57:00,57.8,51.3,30.16,WNW,293,1.6,2.5,79,0.00,,,0.00,WUHU216HW,2013-04-06 09:57:00,
2013-04-06 03:02:00,57.8,51.3,30.16,West,270,0.7,2.5,79,0.00,,,0.00,WUHU216HW,2013-04-06 10:02:00,
2013-04-06 03:07:00,57.8,51.3,30.16,NW,315,0.4,1.6,79,0.00,,,0.00,WUHU216HW,2013-04-06 10:07:00,
2013-04-06 03:12:00,57.6,51.1,30.16,WSW,248,0.4,1.6,79,0.00,,,0.00,WUHU216HW,2013-04-06 10:12:00,
2013-04-06 03:17:00,57.6,51.1,30.15,West,270,0.9,1.3,79,0.00,,,0.00,WUHU216HW,2013-04-06 10:17:00,
2013-04-06 03:22:00,57.6,51.1,30.15,West,270,1.8,1.8,79,0.00,,,0.00,WUHU216HW,2013-04-06 10:22:00,
2013-04-06 03:27:00,57.6,51.1,30.15,West,270,1.8,1.8,79,0.00,,,0.00,WUHU216HW,2013-04-06 10:27:00,
2013-04-06 03:32:00,57.6,51.1,30.15,West,270,0.0,1.8,79,0.00,,,0.00,WUHU216HW,2013-04-06 10:32:00,
2013-04-06 03:37:00,57.6,51.1,30.15,WSW,248,0.0,1.8,79,0.00,,,0.00,WUHU216HW,2013-04-06 10:37:00,
2013-04-06 03:42:00,57.6,51.1,30.15,WSW,248,0.9,0.9,79,0.00,,,0.00,WUHU216HW,2013-04-06 10:42:00,
2013-04-06 03:47:00,57.8,51.3,30.15,WSW,248,0.2,1.1,79,0.00,,,0.00,WUHU216HW,2013-04-06 10:47:00,
2013-04-06 03:52:00,57.8,51.3,30.14,SW,225,1.6,1.6,79,0.00,,,0.00,WUHU216HW,2013-04-06 10:52:00,
2013-04-06 03:57:00,57.8,51.3,30.15,SW,225,0.4,2.0,79,0.00,,,0.00,WUHU216HW,2013-04-06 10:57:00,
2013-04-06 04:02:00,57.8,51.3,30.15,SSW,203,1.3,2.0,79,0.00,,,0.00,WUHU216HW,2013-04-06 11:02:00,
2013-04-06 04:08:00,57.8,51.3,30.15,SW,225,1.1,2.5,79,0.00,,,0.00,WUHU216HW,2013-04-06 11:08:00,
2013-04-06 04:13:00,57.6,51.1,30.15,WSW,248,1.6,2.5,79,0.00,,,0.00,WUHU216HW,2013-04-06 11:13:00,
2013-04-06 04:18:00,57.6,51.1,30.14,WSW,248,0.2,1.8,79,0.00,,,0.00,WUHU216HW,2013-04-06 11:18:00,
2013-04-06 04:23:00,57.6,50.8,30.14,WSW,248,0.7,1.8,78,0.00,,,0.00,WUHU216HW,2013-04-06 11:23:00,
2013-04-06 04:28:00,57.6,50.8,30.14,ESE,113,0.4,1.8,78,0.00,,,0.00,WUHU216HW,2013-04-06 11:28:00,
2013-04-06 04:33:00,57.8,50.9,30.14,South,180,0.4,0.9,78,0.00,,,0.00,WUHU216HW,2013-04-06 11:33:00,
2013-04-06 04:38:00,57.6,50.8,30.14,SW,225,0.9,1.1,78,0.00,,,0.00,WUHU216HW,2013-04-06 11:38:00,
2013-04-06 04:43:00,57.8,50.9,30.14,SW,225,0.2,2.5,78,0.00,,,0.00,WUHU216HW,2013-04-06 11:43:00,
2013-04-06 04:48:00,57.8,50.9,30.14,SW,225,1.1,2.5,78,0.00,,,0.00,WUHU216HW,2013-04-06 11:48:00,
2013-04-06 04:53:00,57.8,50.9,30.14,SW,225,1.3,1.8,78,0.00,,,0.00,WUHU216HW,2013-04-06 11:53:00,
2013-04-06 04:58:00,57.8,50.9,30.15,WNW,293,0.0,1.3,78,0.00,,,0.00,WUHU216HW,2013-04-06 11:58:00,
2013-04-06 05:03:00,57.8,50.9,30.15,SW,225,1.1,2.0,78,0.00,,,0.00,WUHU216HW,2013-04-06 12:03:00,
2013-04-06 05:08:00,57.8,50.9,30.14,WSW,248,0.4,2.0,78,0.00,,,0.00,WUHU216HW,2013-04-06 12:08:00,
2013-04-06 05:13:00,57.8,51.3,30.14,SW,225,1.6,2.5,79,0.00,,,0.00,WUHU216HW,2013-04-06 12:13:00,
2013-04-06 05:18:00,57.8,51.3,30.14,WSW,248,1.1,2.5,79,0.00,,,0.00,WUHU216HW,2013-04-06 12:18:00,
2013-04-06 05:23:00,57.8,51.3,30.14,West,270,1.3,2.9,79,0.00,,,0.00,WUHU216HW,2013-04-06 12:23:00,
2013-04-06 05:28:00,57.8,51.3,30.15,WSW,248,1.8,2.9,79,0.00,,,0.00,WUHU216HW,2013-04-06 12:28:00,
2013-04-06 05:33:00,57.8,51.3,30.15,WSW,248,0.0,1.8,79,0.00,,,0.00,WUHU216HW,2013-04-06 12:33:00,
2013-04-06 05:38:00,57.8,51.3,30.15,WSW,248,1.1,1.8,79,0.00,,,0.00,WUHU216HW,2013-04-06 12:38:00,
2013-04-06 05:43:00,57.8,51.3,30.15,WSW,248,0.4,1.8,79,0.00,,,0.00,WUHU216HW,2013-04-06 12:43:00,
2013-04-06 05:48:00,57.8,51.3,30.15,WSW,248,0.0,1.8,79,0.00,,,0.00,WUHU216HW,2013-04-06 12:48:00,
2013-04-06 05:53:00,57.8,51.3,30.15,West,270,0.4,1.8,79,0.00,,,0.00,WUHU216HW,2013-04-06 12:53:00,
2013-04-06 05:58:00,57.8,51.3,30.15,WSW,248,0.4,1.8,79,0.00,,,0.00,WUHU216HW,2013-04-06 12:58:00,
2013-04-06 06:03:00,57.8,51.3,30.16,WSW,248,0.4,1.8,79,0.00,,,0.00,WUHU216HW,2013-04-06 13:03:00,
2013-04-06 06:08:00,57.8,51.3,30.16,WSW,248,0.0,1.8,79,0.00,,,0.00,WUHU216HW,2013-04-06 13:08:00,
2013-04-06 06:13:00,57.6,51.1,30.16,SSW,203,0.4,1.8,79,0.00,,,0.00,WUHU216HW,2013-04-06 13:13:00,
2013-04-06 06:18:00,57.6,51.1,30.16,WSW,248,0.0,1.8,79,0.00,,,0.00,WUHU216HW,2013-04-06 13:18:00,
2013-04-06 06:23:00,57.6,51.1,30.16,SSE,158,1.1,1.1,79,0.00,,,0.00,WUHU216HW,2013-04-06 13:23:00,
2013-04-06 06:29:00,57.6,51.1,30.16,SSW,203,0.0,1.3,79,0.00,,,0.00,WUHU216HW,2013-04-06 13:29:00,
2013-04-06 06:34:00,57.6,51.1,30.16,SE,135,1.3,1.6,79,0.00,,,0.00,WUHU216HW,2013-04-06 13:34:00,
2013-04-06 06:39:00,57.6,51.1,30.16,SSE,158,0.7,2.0,79,0.00,,,0.00,WUHU216HW,2013-04-06 13:39:00,
2013-04-06 06:44:00,57.6,51.1,30.16,SE,135,0.9,2.0,79,0.00,,,0.00,WUHU216HW,2013-04-06 13:44:00,
2013-04-06 06:49:00,57.6,51.1,30.16,SE,135,0.2,0.9,79,0.00,,,0.00,WUHU216HW,2013-04-06 13:49:00,
2013-04-06 06:54:00,57.6,51.1,30.16,ESE,113,2.0,2.5,79,0.00,,,0.00,WUHU216HW,2013-04-06 13:54:00,
2013-04-06 06:59:00,57.6,51.1,30.16,SSE,158,1.3,2.5,79,0.00,,,0.00,WUHU216HW,2013-04-06 13:59:00,
2013-04-06 07:04:00,57.4,50.9,30.16,SSE,158,0.4,1.6,79,0.00,,,0.00,WUHU216HW,2013-04-06 14:04:00,
2013-04-06 07:09:00,57.4,50.9,30.16,SE,135,0.4,2.5,79,0.00,,,0.00,WUHU216HW,2013-04-06 14:09:00,
2013-04-06 07:14:00,57.4,50.9,30.16,SE,135,1.1,2.5,79,0.00,,,0.00,WUHU216HW,2013-04-06 14:14:00,
2013-04-06 07:19:00,57.4,50.9,30.17,SE,135,0.0,1.1,79,0.00,,,0.00,WUHU216HW,2013-04-06 14:19:00,
2013-04-06 07:24:00,57.4,50.9,30.17,SE,135,0.0,1.1,79,0.00,,,0.00,WUHU216HW,2013-04-06 14:24:00,
2013-04-06 07:29:00,57.4,50.9,30.17,SSE,158,0.0,0.0,79,0.00,,,0.00,WUHU216HW,2013-04-06 14:29:00,
2013-04-06 07:34:00,57.4,50.9,30.17,ESE,113,0.2,1.8,79,0.00,,,0.00,WUHU216HW,2013-04-06 14:34:00,
2013-04-06 07:39:00,57.4,50.9,30.17,WSW,248,1.1,2.5,79,0.00,,,0.00,WUHU216HW,2013-04-06 14:39:00,
2013-04-06 07:44:00,57.2,50.8,30.17,SSW,203,0.4,2.5,79,0.00,,,0.00,WUHU216HW,2013-04-06 14:44:00,
2013-04-06 07:50:00,57.4,50.9,30.17,SSE,158,0.0,1.8,79,0.00,,,0.00,WUHU216HW,2013-04-06 14:50:00,
2013-04-06 07:55:00,57.4,50.6,30.17,SE,135,1.3,1.8,78,0.00,,,0.00,WUHU216HW,2013-04-06 14:55:00,
2013-04-06 08:00:00,57.4,50.6,30.17,SE,135,0.7,1.8,78,0.00,,,0.00,WUHU216HW,2013-04-06 15:00:00,
2013-04-06 08:05:00,57.4,50.6,30.17,South,180,0.4,1.3,78,0.00,,,0.00,WUHU216HW,2013-04-06 15:05:00,
2013-04-06 08:10:00,57.4,50.6,30.17,SSE,158,0.2,0.9,78,0.00,,,0.00,WUHU216HW,2013-04-06 15:10:00,
2013-04-06 08:15:00,57.4,50.6,30.17,SW,225,0.0,0.7,78,0.00,,,0.00,WUHU216HW,2013-04-06 15:15:00,
2013-04-06 08:20:00,57.4,50.6,30.18,South,180,1.1,1.1,78,0.00,,,0.00,WUHU216HW,2013-04-06 15:20:00,
2013-04-06 08:25:00,57.6,50.8,30.17,SE,135,0.9,1.1,78,0.00,,,0.00,WUHU216HW,2013-04-06 15:25:00,
2013-04-06 08:30:00,57.6,50.8,30.17,SE,135,0.0,1.1,78,0.00,,,0.00,WUHU216HW,2013-04-06 15:30:00,
2013-04-06 08:35:00,57.6,50.8,30.18,SE,135,0.7,0.7,78,0.00,,,0.00,WUHU216HW,2013-04-06 15:35:00,
2013-04-06 08:40:00,57.8,50.9,30.17,SE,135,1.1,1.6,78,0.00,,,0.00,WUHU216HW,2013-04-06 15:40:00,
2013-04-06 08:45:00,58.0,51.1,30.17,SSW,203,0.9,2.5,78,0.00,,,0.00,WUHU216HW,2013-04-06 15:45:00,
2013-04-06 08:50:00,58.0,51.1,30.18,South,180,0.0,2.5,78,0.00,,,0.00,WUHU216HW,2013-04-06 15:50:00,
2013-04-06 08:55:00,58.0,51.1,30.17,WNW,293,0.2,1.8,78,0.00,,,0.00,WUHU216HW,2013-04-06 15:55:00,
2013-04-06 09:00:00,58.1,51.3,30.17,ESE,113,1.1,1.6,78,0.00,,,0.00,WUHU216HW,2013-04-06 16:00:00,
2013-04-06 09:05:00,58.1,51.3,30.17,SE,135,1.3,1.8,78,0.00,,,0.00,WUHU216HW,2013-04-06 16:05:00,
2013-04-06 09:10:00,58.3,51.5,30.18,SE,135,1.8,1.8,78,0.00,,,0.00,WUHU216HW,2013-04-06 16:10:00,
2013-04-06 09:15:00,58.3,51.5,30.18,SE,135,0.4,3.1,78,0.00,,,0.00,WUHU216HW,2013-04-06 16:15:00,
2013-04-06 09:20:00,58.7,51.8,30.17,SE,135,0.7,3.1,78,0.00,,,0.00,WUHU216HW,2013-04-06 16:20:00,
2013-04-06 09:25:00,58.7,51.8,30.17,ESE,113,1.1,1.6,78,0.00,,,0.00,WUHU216HW,2013-04-06 16:25:00,
2013-04-06 09:30:00,58.9,51.7,30.17,SSE,158,0.9,1.6,77,0.00,,,0.00,WUHU216HW,2013-04-06 16:30:00,
2013-04-06 09:35:00,59.0,51.8,30.17,North,0,1.6,1.8,77,0.00,,,0.00,WUHU216HW,2013-04-06 16:35:00,
2013-04-06 09:40:00,59.4,52.2,30.17,East,90,0.4,1.8,77,0.00,,,0.00,WUHU216HW,2013-04-06 16:40:00,
2013-04-06 09:45:00,59.4,52.2,30.17,SSW,203,0.4,1.8,77,0.00,,,0.00,WUHU216HW,2013-04-06 16:45:00,
2013-04-06 09:50:00,59.8,52.2,30.17,SSE,158,1.8,1.8,76,0.00,,,0.00,WUHU216HW,2013-04-06 16:50:00,
2013-04-06 09:56:00,60.1,52.6,30.17,West,270,1.8,1.8,76,0.00,,,0.00,WUHU216HW,2013-04-06 16:56:00,
2013-04-06 10:01:00,60.1,52.6,30.18,ESE,113,2.5,2.5,76,0.00,,,0.00,WUHU216HW,2013-04-06 17:01:00,
2013-04-06 10:06:00,60.5,52.6,30.17,South,180,0.2,2.5,75,0.00,,,0.00,WUHU216HW,2013-04-06 17:06:00,
2013-04-06 10:12:00,60.7,52.7,30.17,ESE,113,0.0,2.5,75,0.00,,,0.00,WUHU216HW,2013-04-06 17:12:00,
2013-04-06 10:17:00,60.8,52.6,30.17,WSW,248,2.5,2.5,74,0.00,,,0.00,WUHU216HW,2013-04-06 17:17:00,
2013-04-06 10:22:00,61.0,52.8,30.17,East,90,2.5,2.5,74,0.00,,,0.00,WUHU216HW,2013-04-06 17:22:00,
2013-04-06 10:27:00,61.0,52.8,30.17,West,270,0.4,2.5,74,0.00,,,0.00,WUHU216HW,2013-04-06 17:27:00,
2013-04-06 10:32:00,61.0,52.4,30.17,SW,225,1.3,2.5,73,0.00,,,0.00,WUHU216HW,2013-04-06 17:32:00,
2013-04-06 10:37:00,61.0,52.4,30.17,SSW,203,1.8,1.8,73,0.00,,,0.00,WUHU216HW,2013-04-06 17:37:00,
2013-04-06 10:42:00,61.4,52.7,30.17,WSW,248,2.7,2.7,73,0.00,,,0.00,WUHU216HW,2013-04-06 17:42:00,
2013-04-06 10:47:00,61.6,52.8,30.17,WNW,293,2.5,4.0,73,0.00,,,0.00,WUHU216HW,2013-04-06 17:47:00,
2013-04-06 10:52:00,61.6,52.8,30.17,WNW,293,1.8,4.0,73,0.00,,,0.00,WUHU216HW,2013-04-06 17:52:00,
2013-04-06 10:57:00,61.6,52.8,30.17,West,270,2.9,3.8,73,0.00,,,0.00,WUHU216HW,2013-04-06 17:57:00,
2013-04-06 11:02:00,61.6,52.8,30.17,North,0,1.1,3.8,73,0.00,,,0.00,WUHU216HW,2013-04-06 18:02:00,
2013-04-06 11:07:00,61.6,52.8,30.17,North,0,2.5,2.5,73,0.00,,,0.00,WUHU216HW,2013-04-06 18:07:00,
2013-04-06 11:12:00,61.4,52.7,30.17,WNW,293,1.3,2.5,73,0.00,,,0.00,WUHU216HW,2013-04-06 18:12:00,
2013-04-06 11:17:00,61.6,52.8,30.17,West,270,1.6,4.7,73,0.00,,,0.00,WUHU216HW,2013-04-06 18:17:00,
2013-04-06 11:22:00,61.7,53.0,30.18,SSW,203,0.7,4.7,73,0.00,,,0.00,WUHU216HW,2013-04-06 18:22:00,
2013-04-06 11:27:00,61.9,53.2,30.18,WSW,248,1.8,4.5,73,0.00,,,0.00,WUHU216HW,2013-04-06 18:27:00,
2013-04-06 11:32:00,62.1,53.4,30.19,SW,225,1.1,4.5,73,0.00,,,0.00,WUHU216HW,2013-04-06 18:32:00,
2013-04-06 11:38:00,62.3,53.5,30.19,WSW,248,2.5,3.4,73,0.00,,,0.00,WUHU216HW,2013-04-06 18:38:00,
2013-04-06 11:43:00,62.5,53.3,30.19,WSW,248,3.4,3.4,72,0.00,,,0.00,WUHU216HW,2013-04-06 18:43:00,
2013-04-06 11:48:00,62.6,53.5,30.19,SSW,203,0.9,4.0,72,0.00,,,0.00,WUHU216HW,2013-04-06 18:48:00,
2013-04-06 11:53:00,62.6,53.8,30.19,WSW,248,3.8,4.0,73,0.00,,,0.00,WUHU216HW,2013-04-06 18:53:00,
2013-04-06 11:58:00,62.6,53.8,30.19,WSW,248,4.9,4.9,73,0.00,,,0.00,WUHU216HW,2013-04-06 18:58:00,
2013-04-06 12:03:00,62.8,54.0,30.19,West,270,2.2,4.9,73,0.00,,,0.00,WUHU216HW,2013-04-06 19:03:00,
2013-04-06 12:08:00,62.6,53.8,30.19,SW,225,3.6,4.3,73,0.00,,,0.00,WUHU216HW,2013-04-06 19:08:00,
2013-04-06 12:13:00,62.8,54.4,30.19,SSW,203,0.9,4.5,74,0.00,,,0.00,WUHU216HW,2013-04-06 19:13:00,
2013-04-06 12:18:00,62.8,54.7,30.19,SSW,203,0.4,4.5,75,0.00,,,0.00,WUHU216HW,2013-04-06 19:18:00,
2013-04-06 12:23:00,62.8,54.7,30.19,SW,225,0.2,3.6,75,0.00,,,0.00,WUHU216HW,2013-04-06 19:23:00,
2013-04-06 12:28:00,63.0,55.3,30.19,SW,225,4.3,4.3,76,0.00,,,0.00,WUHU216HW,2013-04-06 19:28:00,
2013-04-06 12:33:00,62.8,55.1,30.19,WNW,293,2.0,4.7,76,0.00,,,0.00,WUHU216HW,2013-04-06 19:33:00,
2013-04-06 12:38:00,62.8,54.7,30.18,SW,225,5.8,5.8,75,0.00,,,0.00,WUHU216HW,2013-04-06 19:38:00,
2013-04-06 12:43:00,63.0,54.9,30.18,South,180,0.2,5.8,75,0.00,,,0.00,WUHU216HW,2013-04-06 19:43:00,
2013-04-06 12:48:00,63.0,54.9,30.18,WSW,248,6.5,6.5,75,0.00,,,0.00,WUHU216HW,2013-04-06 19:48:00,
2013-04-06 12:53:00,63.4,55.3,30.18,NW,315,1.8,6.5,75,0.00,,,0.00,WUHU216HW,2013-04-06 19:53:00,
2013-04-06 12:58:00,63.4,54.9,30.18,West,270,1.8,5.4,74,0.00,,,0.00,WUHU216HW,2013-04-06 19:58:00,
2013-04-06 13:03:00,63.4,54.9,30.18,South,180,0.2,5.4,74,0.00,,,0.00,WUHU216HW,2013-04-06 20:03:00,
2013-04-06 13:08:00,63.5,55.1,30.17,West,270,3.6,6.3,74,0.00,,,0.00,WUHU216HW,2013-04-06 20:08:00,
2013-04-06 13:13:00,63.5,55.1,30.17,WNW,293,4.7,6.3,74,0.00,,,0.00,WUHU216HW,2013-04-06 20:13:00,
2013-04-06 13:18:00,63.7,55.3,30.17,NW,315,1.3,5.8,74,0.00,,,0.00,WUHU216HW,2013-04-06 20:18:00,
2013-04-06 13:23:00,63.5,55.1,30.17,West,270,3.6,6.9,74,0.00,,,0.00,WUHU216HW,2013-04-06 20:23:00,
2013-04-06 13:28:00,63.7,55.3,30.17,WSW,248,4.7,6.9,74,0.00,,,0.00,WUHU216HW,2013-04-06 20:28:00,
2013-04-06 13:33:00,63.9,55.4,30.17,WNW,293,1.3,4.9,74,0.00,,,0.00,WUHU216HW,2013-04-06 20:33:00,
2013-04-06 13:38:00,64.1,55.6,30.16,West,270,4.3,6.5,74,0.00,,,0.00,WUHU216HW,2013-04-06 20:38:00,
2013-04-06 13:43:00,64.1,55.3,30.16,NW,315,2.5,6.5,73,0.00,,,0.00,WUHU216HW,2013-04-06 20:43:00,
2013-04-06 13:48:00,64.3,55.4,30.16,WNW,293,3.8,5.1,73,0.00,,,0.00,WUHU216HW,2013-04-06 20:48:00,
2013-04-06 13:53:00,64.3,55.4,30.16,West,270,1.6,5.1,73,0.00,,,0.00,WUHU216HW,2013-04-06 20:53:00,
2013-04-06 13:58:00,64.4,55.6,30.16,NW,315,4.3,7.4,73,0.00,,,0.00,WUHU216HW,2013-04-06 20:58:00,
2013-04-06 14:03:00,64.4,55.6,30.16,West,270,2.9,7.4,73,0.00,,,0.00,WUHU216HW,2013-04-06 21:03:00,
2013-04-06 14:08:00,64.4,55.6,30.16,West,270,6.3,7.2,73,0.00,,,0.00,WUHU216HW,2013-04-06 21:08:00,
2013-04-06 14:13:00,64.8,56.0,30.16,West,270,4.7,6.9,73,0.00,,,0.00,WUHU216HW,2013-04-06 21:13:00,
2013-04-06 14:18:00,64.8,55.6,30.16,West,270,5.4,6.9,72,0.00,,,0.00,WUHU216HW,2013-04-06 21:18:00,
2013-04-06 14:23:00,65.0,55.8,30.16,West,270,5.4,6.3,72,0.00,,,0.00,WUHU216HW,2013-04-06 21:23:00,
2013-04-06 14:28:00,65.2,55.5,30.16,WNW,293,4.5,5.4,71,0.00,,,0.00,WUHU216HW,2013-04-06 21:28:00,
2013-04-06 14:33:00,65.2,55.2,30.16,WNW,293,3.8,7.6,70,0.00,,,0.00,WUHU216HW,2013-04-06 21:33:00,
2013-04-06 14:38:00,65.3,55.4,30.16,West,270,2.5,7.6,70,0.00,,,0.00,WUHU216HW,2013-04-06 21:38:00,
2013-04-06 14:43:00,65.3,55.4,30.16,West,270,4.9,6.3,70,0.00,,,0.00,WUHU216HW,2013-04-06 21:43:00,
2013-04-06 14:48:00,65.3,55.4,30.16,West,270,6.3,6.7,70,0.00,,,0.00,WUHU216HW,2013-04-06 21:48:00,
2013-04-06 14:53:00,65.5,55.5,30.16,West,270,6.5,8.7,70,0.00,,,0.00,WUHU216HW,2013-04-06 21:53:00,
2013-04-06 14:58:00,65.5,55.5,30.16,NW,315,6.3,8.7,70,0.00,,,0.00,WUHU216HW,2013-04-06 21:58:00,
2013-04-06 15:03:00,65.7,55.7,30.16,West,270,3.4,6.3,70,0.00,,,0.00,WUHU216HW,2013-04-06 22:03:00,
2013-04-06 15:08:00,65.9,55.8,30.16,NW,315,8.1,8.1,70,0.00,,,0.00,WUHU216HW,2013-04-06 22:08:00,
2013-04-06 15:13:00,65.9,55.8,30.16,West,270,4.0,8.1,70,0.00,,,0.00,WUHU216HW,2013-04-06 22:13:00,
2013-04-06 15:18:00,65.5,55.5,30.16,NNW,338,3.4,6.0,70,0.00,,,0.00,WUHU216HW,2013-04-06 22:18:00,
2013-04-06 15:23:00,65.3,55.4,30.16,WNW,293,7.6,7.6,70,0.00,,,0.00,WUHU216HW,2013-04-06 22:23:00,
2013-04-06 15:28:00,65.5,55.5,30.16,WNW,293,4.7,7.6,70,0.00,,,0.00,WUHU216HW,2013-04-06 22:28:00,
2013-04-06 15:33:00,65.3,55.4,30.16,WSW,248,4.5,7.6,70,0.00,,,0.00,WUHU216HW,2013-04-06 22:33:00,
2013-04-06 15:39:00,65.3,55.4,30.16,NW,315,6.3,6.3,70,0.00,,,0.00,WUHU216HW,2013-04-06 22:39:00,
2013-04-06 15:44:00,65.5,55.5,30.16,West,270,4.7,6.3,70,0.00,,,0.00,WUHU216HW,2013-04-06 22:44:00,
2013-04-06 15:49:00,65.5,55.5,30.16,West,270,6.3,6.3,70,0.00,,,0.00,WUHU216HW,2013-04-06 22:49:00,
2013-04-06 15:54:00,65.5,55.5,30.16,SW,225,8.5,8.5,70,0.00,,,0.00,WUHU216HW,2013-04-06 22:54:00,
2013-04-06 15:59:00,65.5,55.5,30.16,WSW,248,5.6,8.5,70,0.00,,,0.00,WUHU216HW,2013-04-06 22:59:00,
2013-04-06 16:04:00,65.5,55.1,30.16,West,270,4.5,6.9,69,0.00,,,0.00,WUHU216HW,2013-04-06 23:04:00,
2013-04-06 16:09:00,65.3,54.9,30.16,WNW,293,7.2,7.2,69,0.00,,,0.00,WUHU216HW,2013-04-06 23:09:00,
2013-04-06 16:14:00,65.2,54.7,30.16,West,270,3.6,7.2,69,0.00,,,0.00,WUHU216HW,2013-04-06 23:14:00,
2013-04-06 16:19:00,65.0,54.6,30.15,West,270,5.4,7.2,69,0.00,,,0.00,WUHU216HW,2013-04-06 23:19:00,
2013-04-06 16:24:00,65.0,54.6,30.15,WNW,293,6.5,6.7,69,0.00,,,0.00,WUHU216HW,2013-04-06 23:24:00,
2013-04-06 16:29:00,65.0,54.6,30.15,West,270,5.8,8.1,69,0.00,,,0.00,WUHU216HW,2013-04-06 23:29:00,
2013-04-06 16:34:00,65.0,54.6,30.15,West,270,5.4,8.1,69,0.00,,,0.00,WUHU216HW,2013-04-06 23:34:00,
2013-04-06 16:39:00,65.3,54.9,30.15,WSW,248,6.3,6.3,69,0.00,,,0.00,WUHU216HW,2013-04-06 23:39:00,
2013-04-06 16:44:00,65.5,54.6,30.14,West,270,7.6,7.8,68,0.00,,,0.00,WUHU216HW,2013-04-06 23:44:00,
2013-04-06 16:49:00,65.7,54.8,30.14,West,270,3.4,8.1,68,0.00,,,0.00,WUHU216HW,2013-04-06 23:49:00,
2013-04-06 16:54:00,65.5,54.6,30.14,WSW,248,6.9,8.9,68,0.00,,,0.00,WUHU216HW,2013-04-06 23:54:00,
2013-04-06 16:59:00,65.3,54.6,30.14,WSW,248,6.3,8.9,68,0.00,,,0.00,WUHU216HW,2013-04-06 23:59:00,
2013-04-06 17:04:00,65.3,54.6,30.14,WSW,248,5.6,6.9,68,0.00,,,0.00,WUHU216HW,2013-04-07 00:04:00,
2013-04-06 17:09:00,65.3,54.6,30.14,WSW,248,3.1,5.8,68,0.00,,,0.00,WUHU216HW,2013-04-07 00:09:00,
2013-04-06 17:15:00,65.3,54.6,30.13,West,270,6.3,6.3,68,0.00,,,0.00,WUHU216HW,2013-04-07 00:15:00,
2013-04-06 17:20:00,65.2,53.9,30.13,West,270,5.8,8.5,67,0.00,,,0.00,WUHU216HW,2013-04-07 00:20:00,
2013-04-06 17:25:00,64.6,53.8,30.13,WSW,248,7.2,8.5,68,0.00,,,0.00,WUHU216HW,2013-04-07 00:25:00,
2013-04-06 17:30:00,64.6,54.3,30.13,NW,315,7.2,7.2,69,0.00,,,0.00,WUHU216HW,2013-04-07 00:30:00,
2013-04-06 17:35:00,64.3,53.9,30.14,West,270,10.5,10.5,69,0.00,,,0.00,WUHU216HW,2013-04-07 00:35:00,
2013-04-06 17:40:00,64.3,53.9,30.14,West,270,5.8,10.5,69,0.00,,,0.00,WUHU216HW,2013-04-07 00:40:00,
2013-04-06 17:45:00,63.9,53.6,30.14,SW,225,6.0,7.2,69,0.00,,,0.00,WUHU216HW,2013-04-07 00:45:00,
2013-04-06 17:50:00,63.7,53.4,30.14,West,270,5.1,7.8,69,0.00,,,0.00,WUHU216HW,2013-04-07 00:50:00,
2013-04-06 17:55:00,63.7,53.8,30.14,WSW,248,8.3,8.3,70,0.00,,,0.00,WUHU216HW,2013-04-07 00:55:00,
2013-04-06 18:00:00,63.7,53.8,30.14,WSW,248,2.0,8.5,70,0.00,,,0.00,WUHU216HW,2013-04-07 01:00:00,
2013-04-06 18:05:00,63.5,53.6,30.14,WNW,293,6.3,8.5,70,0.00,,,0.00,WUHU216HW,2013-04-07 01:05:00,
2013-04-06 18:10:00,63.5,53.6,30.13,NNW,338,8.1,8.7,70,0.00,,,0.00,WUHU216HW,2013-04-07 01:10:00,
2013-04-06 18:15:00,63.2,53.3,30.13,West,270,5.6,8.7,70,0.00,,,0.00,WUHU216HW,2013-04-07 01:15:00,
2013-04-06 18:20:00,63.2,53.6,30.13,West,270,5.6,8.7,71,0.00,,,0.00,WUHU216HW,2013-04-07 01:20:00,
2013-04-06 18:25:00,63.0,53.5,30.13,West,270,5.4,8.7,71,0.00,,,0.00,WUHU216HW,2013-04-07 01:25:00,
2013-04-06 18:30:00,62.8,53.3,30.14,West,270,2.5,7.6,71,0.00,,,0.00,WUHU216HW,2013-04-07 01:30:00,
2013-04-06 18:35:00,62.6,53.1,30.14,West,270,6.0,7.6,71,0.00,,,0.00,WUHU216HW,2013-04-07 01:35:00,
2013-04-06 18:40:00,62.5,53.3,30.14,WNW,293,3.6,6.5,72,0.00,,,0.00,WUHU216HW,2013-04-07 01:40:00,
2013-04-06 18:45:00,62.3,53.1,30.13,WNW,293,3.1,7.4,72,0.00,,,0.00,WUHU216HW,2013-04-07 01:45:00,
2013-04-06 18:50:00,62.3,53.1,30.13,NNW,338,1.6,7.4,72,0.00,,,0.00,WUHU216HW,2013-04-07 01:50:00,
2013-04-06 18:55:00,62.3,53.1,30.13,NW,315,6.9,6.9,72,0.00,,,0.00,WUHU216HW,2013-04-07 01:55:00,
2013-04-06 19:00:00,62.3,53.1,30.13,West,270,6.0,6.9,72,0.00,,,0.00,WUHU216HW,2013-04-07 02:00:00,
2013-04-06 19:05:00,61.9,53.2,30.13,West,270,7.6,7.6,73,0.00,,,0.00,WUHU216HW,2013-04-07 02:05:00,
2013-04-06 19:10:00,61.7,52.7,30.13,West,270,1.8,7.6,72,0.00,,,0.00,WUHU216HW,2013-04-07 02:10:00,
2013-04-06 19:15:00,61.7,52.7,30.13,West,270,4.7,5.4,72,0.00,,,0.00,WUHU216HW,2013-04-07 02:15:00,
2013-04-06 19:20:00,61.6,52.5,30.13,West,270,1.1,5.8,72,0.00,,,0.00,WUHU216HW,2013-04-07 02:20:00,
2013-04-06 19:25:00,61.6,52.8,30.13,WNW,293,4.0,5.8,73,0.00,,,0.00,WUHU216HW,2013-04-07 02:25:00,
2013-04-06 19:30:00,61.6,52.5,30.13,NNW,338,1.6,4.5,72,0.00,,,0.00,WUHU216HW,2013-04-07 02:30:00,
2013-04-06 19:35:00,61.6,52.5,30.13,West,270,2.9,5.6,72,0.00,,,0.00,WUHU216HW,2013-04-07 02:35:00,
2013-04-06 19:40:00,61.4,52.7,30.13,WSW,248,1.1,5.6,73,0.00,,,0.00,WUHU216HW,2013-04-07 02:40:00,
2013-04-06 19:45:00,61.2,52.6,30.13,West,270,3.8,3.8,73,0.00,,,0.00,WUHU216HW,2013-04-07 02:45:00,
2013-04-06 19:50:00,60.8,52.2,30.13,West,270,4.0,4.7,73,0.00,,,0.00,WUHU216HW,2013-04-07 02:50:00,
2013-04-06 19:55:00,60.8,52.2,30.14,West,270,1.1,4.7,73,0.00,,,0.00,WUHU216HW,2013-04-07 02:55:00,
2013-04-06 20:00:00,60.7,52.0,30.14,NW,315,1.3,4.0,73,0.00,,,0.00,WUHU216HW,2013-04-07 03:00:00,
2013-04-06 20:05:00,60.5,51.8,30.14,West,270,2.9,4.0,73,0.00,,,0.00,WUHU216HW,2013-04-07 03:05:00,
2013-04-06 20:10:00,60.5,51.8,30.14,West,270,3.8,4.0,73,0.00,,,0.00,WUHU216HW,2013-04-07 03:10:00,
2013-04-06 20:15:00,60.1,51.8,30.15,West,270,3.4,6.3,74,0.00,,,0.00,WUHU216HW,2013-04-07 03:15:00,
2013-04-06 20:20:00,60.1,51.8,30.15,NNW,338,2.5,6.3,74,0.00,,,0.00,WUHU216HW,2013-04-07 03:20:00,
2013-04-06 20:25:00,59.9,51.7,30.15,WNW,293,3.4,5.4,74,0.00,,,0.00,WUHU216HW,2013-04-07 03:25:00,
2013-04-06 20:31:00,59.9,51.7,30.15,WSW,248,0.0,4.7,74,0.00,,,0.00,WUHU216HW,2013-04-07 03:31:00,
2013-04-06 20:36:00,59.8,51.5,30.15,NNW,338,1.8,4.7,74,0.00,,,0.00,WUHU216HW,2013-04-07 03:36:00,
2013-04-06 20:41:00,59.8,51.8,30.15,WNW,293,1.1,3.4,75,0.00,,,0.00,WUHU216HW,2013-04-07 03:41:00,
2013-04-06 20:46:00,59.8,51.8,30.15,NW,315,4.3,4.3,75,0.00,,,0.00,WUHU216HW,2013-04-07 03:46:00,
2013-04-06 20:51:00,59.6,51.7,30.15,NW,315,4.9,4.9,75,0.00,,,0.00,WUHU216HW,2013-04-07 03:51:00,
2013-04-06 20:56:00,59.6,51.7,30.15,NW,315,4.0,4.9,75,0.00,,,0.00,WUHU216HW,2013-04-07 03:56:00,
2013-04-06 21:01:00,59.4,51.5,30.15,West,270,4.0,4.3,75,0.00,,,0.00,WUHU216HW,2013-04-07 04:01:00,
2013-04-06 21:06:00,59.2,51.3,30.16,West,270,3.1,6.9,75,0.00,,,0.00,WUHU216HW,2013-04-07 04:06:00,
2013-04-06 21:11:00,59.2,51.3,30.16,West,270,2.2,6.9,75,0.00,,,0.00,WUHU216HW,2013-04-07 04:11:00,
2013-04-06 21:16:00,59.0,51.5,30.16,NNW,338,3.1,7.6,76,0.00,,,0.00,WUHU216HW,2013-04-07 04:16:00,
2013-04-06 21:21:00,58.9,51.3,30.15,West,270,4.0,7.6,76,0.00,,,0.00,WUHU216HW,2013-04-07 04:21:00,
2013-04-06 21:26:00,58.9,51.3,30.16,WNW,293,0.4,4.0,76,0.00,,,0.00,WUHU216HW,2013-04-07 04:26:00,
2013-04-06 21:31:00,59.0,51.5,30.16,WNW,293,3.8,3.8,76,0.00,,,0.00,WUHU216HW,2013-04-07 04:31:00,
2013-04-06 21:36:00,59.0,51.5,30.16,WNW,293,3.4,4.0,76,0.00,,,0.00,WUHU216HW,2013-04-07 04:36:00,
2013-04-06 21:41:00,58.9,51.3,30.16,West,270,2.5,4.0,76,0.00,,,0.00,WUHU216HW,2013-04-07 04:41:00,
2013-04-06 21:46:00,58.7,51.1,30.16,WNW,293,4.7,4.7,76,0.00,,,0.00,WUHU216HW,2013-04-07 04:46:00,
2013-04-06 21:51:00,58.7,51.1,30.16,NW,315,1.3,4.7,76,0.00,,,0.00,WUHU216HW,2013-04-07 04:51:00,
2013-04-06 21:56:00,58.5,50.9,30.16,WNW,293,2.5,4.3,76,0.00,,,0.00,WUHU216HW,2013-04-07 04:56:00,
2013-04-06 22:01:00,58.5,50.9,30.16,WNW,293,1.6,3.1,76,0.00,,,0.00,WUHU216HW,2013-04-07 05:01:00,
2013-04-06 22:06:00,58.5,50.9,30.16,North,0,2.2,2.9,76,0.00,,,0.00,WUHU216HW,2013-04-07 05:06:00,
2013-04-06 22:11:00,58.3,50.8,30.16,NW,315,3.1,5.1,76,0.00,,,0.00,WUHU216HW,2013-04-07 05:11:00,
2013-04-06 22:16:00,58.1,50.6,30.16,WSW,248,1.1,5.1,76,0.00,,,0.00,WUHU216HW,2013-04-07 05:16:00,
2013-04-06 22:21:00,58.1,50.6,30.16,NW,315,2.0,3.6,76,0.00,,,0.00,WUHU216HW,2013-04-07 05:21:00,
2013-04-06 22:26:00,58.1,50.6,30.16,WSW,248,2.5,2.5,76,0.00,,,0.00,WUHU216HW,2013-04-07 05:26:00,
2013-04-06 22:31:00,58.3,51.1,30.16,WSW,248,1.6,2.5,77,0.00,,,0.00,WUHU216HW,2013-04-07 05:31:00,
2013-04-06 22:36:00,58.3,51.1,30.17,West,270,0.4,2.5,77,0.00,,,0.00,WUHU216HW,2013-04-07 05:36:00,
2013-04-06 22:41:00,58.3,51.1,30.17,West,270,2.0,3.4,77,0.00,,,0.00,WUHU216HW,2013-04-07 05:41:00,
2013-04-06 22:47:00,58.3,50.8,30.17,WSW,248,0.4,3.4,76,0.00,,,0.00,WUHU216HW,2013-04-07 05:47:00,
2013-04-06 22:52:00,58.3,50.8,30.17,WSW,248,0.2,2.5,76,0.00,,,0.00,WUHU216HW,2013-04-07 05:52:00,
2013-04-06 22:57:00,58.1,50.9,30.17,West,270,0.4,3.4,77,0.00,,,0.00,WUHU216HW,2013-04-07 05:57:00,
2013-04-06 23:02:00,58.1,50.9,30.18,West,270,3.1,3.4,77,0.00,,,0.00,WUHU216HW,2013-04-07 06:02:00,
2013-04-06 23:07:00,58.1,50.9,30.17,West,270,1.3,5.1,77,0.00,,,0.00,WUHU216HW,2013-04-07 06:07:00,
2013-04-06 23:12:00,58.0,50.8,30.18,WNW,293,4.5,5.1,77,0.00,,,0.00,WUHU216HW,2013-04-07 06:12:00,
2013-04-06 23:17:00,58.0,50.8,30.18,West,270,4.7,5.4,77,0.00,,,0.00,WUHU216HW,2013-04-07 06:17:00,
2013-04-06 23:22:00,58.0,50.8,30.18,West,270,4.0,5.4,77,0.00,,,0.00,WUHU216HW,2013-04-07 06:22:00,
2013-04-06 23:27:00,57.8,50.6,30.18,West,270,3.1,5.4,77,0.00,,,0.00,WUHU216HW,2013-04-07 06:27:00,
2013-04-06 23:32:00,57.6,50.4,30.18,West,270,3.4,6.3,77,0.00,,,0.00,WUHU216HW,2013-04-07 06:32:00,
2013-04-06 23:37:00,57.4,50.2,30.17,WNW,293,2.0,6.3,77,0.00,,,0.00,WUHU216HW,2013-04-07 06:37:00,
2013-04-06 23:42:00,57.4,50.2,30.17,West,270,1.1,4.3,77,0.00,,,0.00,WUHU216HW,2013-04-07 06:42:00,
2013-04-06 23:47:00,57.4,50.2,30.17,WSW,248,1.1,1.8,77,0.00,,,0.00,WUHU216HW,2013-04-07 06:47:00,
2013-04-06 23:52:00,57.4,50.6,30.17,West,270,1.6,2.5,78,0.00,,,0.00,WUHU216HW,2013-04-07 06:52:00,
2013-04-06 23:57:00,57.2,50.4,30.17,NNW,338,1.8,2.5,78,0.00,,,0.00,WUHU216HW,2013-04-07 06:57:00,